Погода в Вижнице

Украина / Черновицкая область     48°14′42″N   25°10′55″E
темп.,
°C
ветер,
м/с
пор.,
м/с
влажн.,
%
обл.,
%
осадки,
мм/ч
давл.,
гПа
погр.,
м
18 октября, пн
пн1800:00+3зюз1191100 0.0 102310
03:00+3юз21928 0.0 102412
06:00+2юз2192100 0.0 102313
09:00+5юз128098 0.0 102462
12:00+11с1155100 0.0 1023823
15:00+11с2352100 0.0 10221161
18:00+8ссз256667 0.0 1024153
21:00+7зюз1177100 0.0 102532
19 октября, вт
вт1900:00+7зсз1180100 0.0 102745
03:00+7юз1276100 0.0 102637
06:00+7з1279100 0.1 102747
09:00+7зсз137897 0.2 1029175
12:00+10ссз246787 0.1 1029887
15:00+12с236090 0.1 1028951
18:00+9всв1176100 0.0 102712
21:00+7ю118284 0.0 102819
20 октября, ср
ср2000:00+6ююз22845 0.0 102820
03:00+5юз22858 0.0 102733
06:00+5юз328188 0.0 102638
09:00+7ююз237299 0.0 102580
12:00+15юз244577 0.0 1022530
15:00+18з2337100 0.0 10201169
18:00+13ююз215799 0.0 101924
21:00+10юз3364100 0.0 101953
21 октября, чт
чт2100:00+9ююз3370100 0.0 101857
03:00+8юз3366100 0.0 101754
06:00+8юз3463100 0.0 101556
09:00+10юз3457100 0.0 101482
12:00+19юз483178 0.0 1012876
15:00+20юз253399 0.0 10111182
18:00+14з355085 0.0 1012172
21:00+12зюз3657100 0.0 1013135
22 октября, пт
пт2200:00+11ююз376398 0.0 1012164
03:00+10ююз2273100 0.0 101321
06:00+10юз2276100 0.0 101239
09:00+11юз2375100 0.0 101270
12:00+16юз1356100 0.0 1011565
15:00+18юз3647100 0.0 10091358
18:00+14ююз2261100 0.0 100918
21:00+13ююз2268100 0.0 100937